Date String (YYYY-MM-DD hh:mm:ss) UTC,Instrument flags,Ambient pressure (hPa),Sample flow (lpm),Bypass flow (lpm),Sample temperature (°C),Ambient temperature (°C),ASC tube jacket temperature (°C),LED temperature (°C),Box temperature (°C),Sample RH (%),Span deviation,Mass concentration (μg/m³),Mass concentration (μg/m³),Mass concentration (μg/m³)
DateTimeUTC,F1_M11,P_M11,Q1_M11,Q2_M11,T1_M11,T2_M11,T3_M11,T4_M11,T5_M11,U1_M11,ZSPAN_M11,X0_M11,X2_M11,X1_M11
2022-04-30 01:00:00,,0817.6,4.99,0.00,25.0,23.9,00.0,34.0,26.8,10.1,0000.0,0010.43,0002.80,0001.45
2022-04-30 01:01:00,,0817.7,5.01,0.00,25.0,23.8,00.0,34.0,26.8,10.1,0000.0,0009.92,0002.74,0001.42
2022-04-30 01:02:00,,0817.6,5.00,0.00,25.0,23.8,00.0,33.9,26.8,10.0,0000.0,0008.88,0002.69,0001.40
2022-04-30 01:03:00,,0817.7,4.98,0.00,25.0,23.8,00.0,33.9,26.8,09.8,0000.0,0008.47,0002.62,0001.38
2022-04-30 01:04:00,,0817.8,5.01,0.00,25.0,23.8,00.0,33.9,26.8,09.6,0000.0,0009.19,0002.71,0001.40
2022-04-30 01:05:00,,0817.8,5.01,0.00,25.0,23.7,00.0,33.9,26.7,09.5,0000.0,0009.91,0002.72,0001.40
2022-04-30 01:06:00,,0817.9,4.99,0.00,25.0,23.7,00.0,33.9,26.7,09.4,0000.0,0009.71,0002.74,0001.39
2022-04-30 01:07:00,,0817.7,5.00,0.00,24.9,23.7,00.0,33.9,26.7,09.2,0000.0,0009.43,0002.73,0001.40
2022-04-30 01:08:00,,0817.8,5.00,0.00,24.9,23.7,00.0,33.9,26.7,08.9,0000.0,0009.90,0002.72,0001.41
2022-04-30 01:09:00,,0817.9,5.00,0.00,24.9,23.7,00.0,33.9,26.7,08.8,0000.0,0009.85,0002.70,0001.41
2022-04-30 01:10:00,,0818.0,5.01,0.00,24.9,23.7,00.0,33.9,26.6,08.9,0000.0,0010.23,0002.67,0001.42
2022-04-30 01:11:00,,0818.2,5.00,0.00,24.9,23.7,00.0,33.8,26.6,08.9,0000.0,0010.68,0002.65,0001.42
2022-04-30 01:12:00,,0818.1,5.00,0.00,24.9,23.7,00.0,33.8,26.6,08.8,0000.0,0011.30,0002.66,0001.43
2022-04-30 01:13:00,,0818.1,5.01,0.00,24.8,23.6,00.0,33.8,26.6,08.8,0000.0,0011.38,0002.75,0001.43
2022-04-30 01:14:00,,0818.3,4.99,0.00,24.8,23.6,00.0,33.8,26.6,08.9,0000.0,0011.36,0002.75,0001.44
2022-04-30 01:15:00,,0818.3,5.01,0.00,24.8,23.6,00.0,33.8,26.6,09.2,0000.0,0010.39,0002.67,0001.43
2022-04-30 01:16:00,,0818.4,5.00,0.00,24.8,23.7,00.0,33.8,26.5,09.8,0000.0,0009.80,0002.66,0001.44
2022-04-30 01:17:00,,0818.3,5.01,0.00,24.8,23.6,00.0,33.8,26.5,10.3,0000.0,0009.82,0002.67,0001.46
2022-04-30 01:18:00,,0818.1,4.99,0.00,24.8,23.6,00.0,33.8,26.5,10.8,0000.0,0009.75,0002.72,0001.45
2022-04-30 01:19:00,,0818.3,5.00,0.00,24.7,23.6,00.0,33.8,26.5,10.9,0000.0,0009.13,0002.76,0001.45
2022-04-30 01:20:00,,0818.3,5.02,0.00,24.7,23.7,00.0,33.8,26.4,11.1,0000.0,0008.69,0002.72,0001.44
2022-04-30 01:21:00,,0818.3,4.99,0.00,24.7,23.6,00.0,33.8,26.4,11.2,0000.0,0008.35,0002.72,0001.44
2022-04-30 01:22:00,,0818.3,4.99,0.00,24.7,23.6,00.0,33.7,26.4,11.1,0000.0,0007.47,0002.83,0001.44
2022-04-30 01:23:00,,0818.4,5.00,0.00,24.7,23.6,00.0,33.7,26.4,10.9,0000.0,0006.80,0002.83,0001.44
2022-04-30 01:24:00,,0818.5,5.01,0.00,24.6,23.6,00.0,33.7,26.4,10.9,0000.0,0007.44,0002.76,0001.44
2022-04-30 01:25:00,,0818.6,5.00,0.00,24.6,23.5,00.0,33.7,26.4,11.0,0000.0,0007.45,0002.74,0001.45
2022-04-30 01:26:00,,0818.5,5.00,0.00,24.6,23.5,00.0,33.7,26.4,10.8,0000.0,0007.56,0002.79,0001.45
2022-04-30 01:27:00,,0818.5,5.01,0.00,24.6,23.5,00.0,33.7,26.4,10.5,0000.0,0007.68,0002.78,0001.44
2022-04-30 01:28:00,,0818.4,5.00,0.00,24.6,23.5,00.0,33.7,26.3,10.1,0000.0,0007.72,0002.75,0001.43
2022-04-30 01:29:00,,0818.5,5.00,0.00,24.6,23.4,00.0,33.6,26.4,10.0,0000.0,0007.74,0002.79,0001.42
2022-04-30 01:30:00,,0818.6,5.00,0.00,24.6,23.4,00.0,33.6,26.4,09.9,0000.0,0007.38,0002.67,0001.41
2022-04-30 01:31:00,,0818.7,5.00,0.00,24.6,23.3,00.0,33.6,26.3,09.8,0000.0,0007.38,0002.64,0001.40
2022-04-30 01:32:00,,0819.0,5.01,0.00,24.5,23.3,00.0,33.6,26.3,09.7,0000.0,0007.42,0002.59,0001.39
2022-04-30 01:33:00,,0819.1,4.99,0.00,24.5,23.3,00.0,33.6,26.3,09.8,0000.0,0007.31,0002.48,0001.38
2022-04-30 01:34:00,,0819.1,5.01,0.00,24.5,23.3,00.0,33.6,26.3,10.0,0000.0,0006.72,0002.40,0001.35
2022-04-30 01:35:00,,0819.2,5.00,0.00,24.5,23.3,00.0,33.5,26.3,10.0,0000.0,0005.62,0002.39,0001.33
2022-04-30 01:36:00,,0819.1,5.00,0.00,24.5,23.3,00.0,33.5,26.2,10.0,0000.0,0005.57,0002.40,0001.32
2022-04-30 01:37:00,,0819.1,4.99,0.00,24.4,23.3,00.0,33.5,26.2,10.1,0000.0,0006.57,0002.40,0001.29
2022-04-30 01:38:00,,0819.2,5.00,0.00,24.4,23.3,00.0,33.5,26.2,10.2,0000.0,0006.64,0002.40,0001.27
2022-04-30 01:39:00,,0819.4,4.99,0.00,24.4,23.2,00.0,33.5,26.1,10.2,0000.0,0006.39,0002.37,0001.25
2022-04-30 01:40:00,,0819.4,5.00,0.00,24.4,23.3,00.0,33.5,26.1,10.2,0000.0,0006.80,0002.32,0001.23
2022-04-30 01:41:00,,0819.3,5.01,0.00,24.4,23.3,00.0,33.5,26.1,10.2,0000.0,0006.78,0002.25,0001.21
2022-04-30 01:42:00,,0819.4,5.00,0.00,24.4,23.2,00.0,33.4,26.2,10.2,0000.0,0006.83,0002.29,0001.21
2022-04-30 01:43:00,,0819.7,4.99,0.00,24.4,23.2,00.0,33.4,26.1,10.3,0000.0,0006.79,0002.29,0001.20
2022-04-30 01:44:00,,0819.8,5.01,0.00,24.3,23.2,00.0,33.4,26.1,10.4,0000.0,0006.87,0002.29,0001.20
2022-04-30 01:45:00,,0819.6,4.99,0.00,24.3,23.2,00.0,33.4,26.1,10.4,0000.0,0006.81,0002.29,0001.20
2022-04-30 01:46:00,,0819.8,4.99,0.00,24.3,23.2,00.0,33.4,26.1,10.4,0000.0,0007.15,0002.23,0001.20
2022-04-30 01:47:00,,0819.9,5.01,0.00,24.3,23.2,00.0,33.4,26.1,10.4,0000.0,0007.28,0002.24,0001.20
2022-04-30 01:48:00,,0819.9,4.99,0.00,24.3,23.2,00.0,33.4,26.0,10.4,0000.0,0006.22,0002.23,0001.21
2022-04-30 01:49:00,,0820.0,4.99,0.00,24.3,23.2,00.0,33.3,26.0,10.5,0000.0,0005.81,0002.18,0001.22
2022-04-30 01:50:00,,0820.0,5.01,0.00,24.2,23.2,00.0,33.3,25.9,10.5,0000.0,0005.90,0002.16,0001.23
2022-04-30 01:51:00,,0820.1,5.00,0.00,24.2,23.2,00.0,33.3,26.0,10.5,0000.0,0005.25,0002.10,0001.23
2022-04-30 01:52:00,,0820.2,4.99,0.00,24.2,23.2,00.0,33.3,26.0,10.6,0000.0,0006.62,0002.12,0001.23
2022-04-30 01:53:00,,0820.0,5.02,0.00,24.2,23.2,00.0,33.3,26.0,10.5,0000.0,0007.08,0002.12,0001.22
2022-04-30 01:54:00,,0820.0,5.00,0.00,24.2,23.1,00.0,33.3,26.0,10.4,0000.0,0007.09,0002.10,0001.23
2022-04-30 01:55:00,,0820.2,4.99,0.00,24.2,23.1,00.0,33.3,26.0,10.3,0000.0,0007.01,0002.09,0001.23
2022-04-30 01:56:00,,0820.3,5.02,0.00,24.2,23.1,00.0,33.3,26.0,10.2,0000.0,0006.84,0002.07,0001.24
2022-04-30 01:57:00,,0820.4,4.99,0.00,24.2,23.1,00.0,33.3,26.0,10.3,0000.0,0006.51,0002.11,0001.23
2022-04-30 01:58:00,,0820.3,4.99,0.00,24.2,23.1,00.0,33.3,25.9,10.5,0000.0,0006.33,0002.10,0001.23
2022-04-30 01:59:00,,0820.3,5.01,0.00,24.2,23.1,00.0,33.2,25.9,10.5,0000.0,0006.58,0002.04,0001.23
